When you browse on this site, cookies collect data to enhance your experience and personalize the content and advertising you see.
Visit our Privacy Policy to learn more. By continuing to use the site, you agree to this use of cookies and data.
  • In Netherlands
  • List of Countries
  • For 7 days
  • Water Temperature
  • Satellite Maps
  • Weather Map
  • Weather Widgets
  • user-avatar
    Login

    Hourly Weather Novoberezovka

    Today, 10 December, Monday

    Time Temperature Precipitation Wind Pressure Humidity
    00:00 -1°C° 0 mm 5 mps 760 mmHg 90%
    01:00 -1°C° 0 mm 5 mps 760 mmHg 90%
    02:00 -1°C° 0 mm 5 mps 760 mmHg 90%
    03:00 -2°C° 0 mm 4 mps 760 mmHg 92%
    04:00 -2°C° 0 mm 4 mps 759 mmHg 92%
    05:00 -2°C° 0 mm 5 mps 759 mmHg 92%
    06:00 -3°C° 0 mm 6 mps 759 mmHg 92%
    07:00 -3°C° 0 mm 6 mps 759 mmHg 91%
    08:00 -2°C° 0 mm 6 mps 759 mmHg 90%
    09:00 -2°C° 0 mm 7 mps 759 mmHg 90%
    10:00 -1°C° 0 mm 7 mps 758 mmHg 89%
    11:00 0°C° 0 mm 7 mps 758 mmHg 88%
    12:00 0°C° 0 mm 7 mps 758 mmHg 87%
    13:00 0°C° 0 mm 7 mps 758 mmHg 87%
    14:00 +2°C° 0 mm 7 mps 757 mmHg 87%
    15:00 +2°C° 0 mm 7 mps 757 mmHg 87%
    16:00 +2°C° 0 mm 6 mps 757 mmHg 88%
    17:00 +1°C° 0 mm 6 mps 757 mmHg 90%
    18:00 +1°C° 0 mm 5 mps 757 mmHg 91%
    19:00 +1°C° 0.1 mm 5 mps 757 mmHg 91%
    20:00 +1°C° 0.1 mm 5 mps 757 mmHg 92%
    21:00 +1°C° 0.1 mm 5 mps 757 mmHg 92%
    22:00 +1°C° 0.1 mm 6 mps 757 mmHg 92%
    23:00 +1°C° 0.1 mm 6 mps 757 mmHg 93%

    Tomorrow, 11 December, Tuesday

    Time Temperature Precipitation Wind Pressure Humidity
    00:00 +1°C° 0.1 mm 6 mps 757 mmHg 93%
    01:00 +1°C° 0 mm 6 mps 757 mmHg 93%
    02:00 +1°C° 0 mm 5 mps 757 mmHg 94%
    03:00 +1°C° 0 mm 5 mps 757 mmHg 94%
    04:00 +1°C° 0 mm 5 mps 757 mmHg 95%
    05:00 +1°C° 0 mm 4 mps 757 mmHg 95%
    06:00 +1°C° 0 mm 4 mps 757 mmHg 96%
    07:00 +1°C° 0 mm 5 mps 757 mmHg 95%
    08:00 +1°C° 0 mm 5 mps 757 mmHg 95%
    09:00 +1°C° 0 mm 5 mps 757 mmHg 95%
    10:00 +2°C° 0 mm 6 mps 756 mmHg 94%
    11:00 +2°C° 0 mm 6 mps 756 mmHg 93%
    12:00 +3°C° 0 mm 6 mps 755 mmHg 92%
    13:00 +3°C° 0 mm 6 mps 755 mmHg 92%
    14:00 +4°C° 0 mm 6 mps 754 mmHg 91%
    15:00 +5°C° 0 mm 5 mps 754 mmHg 91%
    16:00 +4°C° 0 mm 6 mps 754 mmHg 90%
    17:00 +4°C° 0 mm 6 mps 754 mmHg 90%
    18:00 +4°C° 0 mm 7 mps 753 mmHg 90%
    19:00 +4°C° 0.1 mm 6 mps 754 mmHg 91%
    20:00 +4°C° 0.1 mm 6 mps 754 mmHg 91%
    21:00 +5°C° 0.1 mm 5 mps 754 mmHg 92%
    22:00 +5°C° 0.5 mm 5 mps 754 mmHg 92%
    23:00 +4°C° 0.5 mm 6 mps 754 mmHg 93%

    Day after tomorrow, 12 December, Wednesday

    Time Temperature Precipitation Wind Pressure Humidity
    00:00 +4°C° 0.5 mm 6 mps 755 mmHg 93%
    01:00 +5°C° 0.1 mm 5 mps 755 mmHg 93%
    02:00 +3°C° 0.1 mm 5 mps 755 mmHg 93%
    03:00 +3°C° 0.1 mm 5 mps 755 mmHg 93%
    04:00 +4°C° 0 mm 4 mps 755 mmHg 92%
    05:00 +4°C° 0 mm 4 mps 755 mmHg 91%
    06:00 +4°C° 0 mm 4 mps 755 mmHg 90%
    07:00 +4°C° 0 mm 4 mps 756 mmHg 89%
    08:00 +4°C° 0 mm 4 mps 756 mmHg 87%
    09:00 +4°C° 0 mm 4 mps 757 mmHg 85%
    10:00 +6°C° 0 mm 5 mps 757 mmHg 80%
    11:00 +7°C° 0 mm 5 mps 757 mmHg 74%
    12:00 +8°C° 0 mm 6 mps 757 mmHg 68%
    13:00 +8°C° 0 mm 5 mps 757 mmHg 68%
    14:00 +8°C° 0 mm 4 mps 757 mmHg 68%
    15:00 +8°C° 0 mm 3 mps 757 mmHg 67%
    16:00 +7°C° 0 mm 2 mps 757 mmHg 71%
    17:00 +6°C° 0 mm 2 mps 757 mmHg 74%
    18:00 +6°C° 0 mm 1 mps 758 mmHg 78%
    19:00 +6°C° 0 mm 1 mps 758 mmHg 79%
    20:00 +6°C° 0 mm 1 mps 758 mmHg 80%
    21:00 +4°C° 0 mm 0 mps 758 mmHg 82%
    22:00 +5°C° 0 mm 1 mps 758 mmHg 82%
    23:00 +5°C° 0 mm 1 mps 758 mmHg 81%

    13 December, Thursday

    Time Temperature Precipitation Wind Pressure Humidity
    00:00 +5°C° 0 mm 1 mps 759 mmHg 81%
    01:00 +5°C° 0.1 mm 1 mps 759 mmHg 81%
    02:00 +5°C° 0.1 mm 1 mps 759 mmHg 82%
    03:00 +5°C° 0.1 mm 1 mps 759 mmHg 82%
    04:00 +5°C° 0.5 mm 1 mps 760 mmHg 83%
    05:00 +4°C° 0.5 mm 1 mps 760 mmHg 84%
    06:00 +4°C° 0.5 mm 1 mps 760 mmHg 84%
    07:00 +4°C° 0.7 mm 1 mps 761 mmHg 84%
    08:00 +4°C° 0.7 mm 1 mps 761 mmHg 84%
    09:00 +4°C° 0.7 mm 1 mps 762 mmHg 84%
    10:00 +4°C° 0.4 mm 2 mps 762 mmHg 82%
    11:00 +4°C° 0.4 mm 2 mps 762 mmHg 80%
    12:00 +4°C° 0.4 mm 2 mps 762 mmHg 78%
    13:00 +4°C° 0.1 mm 2 mps 762 mmHg 77%
    14:00 +5°C° 0.1 mm 2 mps 763 mmHg 76%
    15:00 +6°C° 0.1 mm 1 mps 763 mmHg 74%
    16:00 +5°C° 0 mm 1 mps 763 mmHg 76%
    17:00 +5°C° 0 mm 1 mps 763 mmHg 78%
    18:00 +4°C° 0 mm 1 mps 764 mmHg 80%
    19:00 +3°C° 0 mm 2 mps 764 mmHg 81%
    20:00 +3°C° 0 mm 2 mps 764 mmHg 82%
    21:00 +2°C° 0 mm 2 mps 764 mmHg 82%
    22:00 +2°C° 0 mm 2 mps 764 mmHg 83%
    23:00 +2°C° 0 mm 2 mps 764 mmHg 84%

    14 December, Friday

    Time Temperature Precipitation Wind Pressure Humidity
    00:00 +2°C° 0 mm 2 mps 764 mmHg 85%
    01:00 +1°C° 0 mm 2 mps 764 mmHg 86%
    02:00 +1°C° 0 mm 2 mps 764 mmHg 87%
    03:00 +1°C° 0 mm 2 mps 765 mmHg 88%
    04:00 +1°C° 0 mm 2 mps 765 mmHg 89%
    05:00 +1°C° 0 mm 2 mps 765 mmHg 90%
    06:00 +1°C° 0 mm 2 mps 765 mmHg 90%
    07:00 +1°C° 0 mm 2 mps 765 mmHg 90%
    08:00 +1°C° 0 mm 2 mps 765 mmHg 90%
    09:00 +2°C° 0 mm 2 mps 765 mmHg 90%
    10:00 +3°C° 0 mm 2 mps 765 mmHg 86%
    11:00 +4°C° 0 mm 2 mps 765 mmHg 82%
    12:00 +5°C° 0 mm 2 mps 765 mmHg 78%
    13:00 +5°C° 0 mm 2 mps 765 mmHg 78%
    14:00 +5°C° 0 mm 2 mps 765 mmHg 78%
    15:00 +6°C° 0 mm 1 mps 765 mmHg 78%
    16:00 +6°C° 0.1 mm 1 mps 765 mmHg 80%
    17:00 +5°C° 0.1 mm 1 mps 766 mmHg 82%
    18:00 +4°C° 0.1 mm 1 mps 766 mmHg 84%
    19:00 +4°C° 0.2 mm 1 mps 766 mmHg 84%
    20:00 +4°C° 0.2 mm 1 mps 766 mmHg 84%
    21:00 +4°C° 0.2 mm 1 mps 766 mmHg 84%
    22:00 +4°C° 0.4 mm 1 mps 766 mmHg 84%
    23:00 +4°C° 0.4 mm 1 mps 766 mmHg 84%

    15 December, Saturday

    Time Temperature Precipitation Wind Pressure Humidity
    00:00 +4°C° 0.4 mm 1 mps 766 mmHg 84%
    01:00 +3°C° 0.4 mm 2 mps 766 mmHg 84%
    02:00 +3°C° 0.4 mm 2 mps 766 mmHg 85%
    03:00 +3°C° 0.4 mm 2 mps 766 mmHg 86%
    04:00 +3°C° 0.4 mm 2 mps 766 mmHg 87%
    05:00 +2°C° 0.4 mm 2 mps 766 mmHg 89%
    06:00 +2°C° 0.4 mm 2 mps 766 mmHg 90%
    07:00 +2°C° 0.2 mm 2 mps 767 mmHg 91%
    08:00 +1°C° 0.2 mm 3 mps 767 mmHg 92%
    09:00 0°C° 0.2 mm 3 mps 767 mmHg 92%
    10:00 +1°C° 0.1 mm 3 mps 768 mmHg 90%
    11:00 +1°C° 0.1 mm 3 mps 768 mmHg 87%
    12:00 +1°C° 0.1 mm 3 mps 768 mmHg 85%
    13:00 +1°C° 0 mm 3 mps 768 mmHg 83%
    14:00 +1°C° 0 mm 3 mps 768 mmHg 82%
    15:00 +1°C° 0 mm 3 mps 769 mmHg 81%
    16:00 0°C° 0 mm 3 mps 769 mmHg 82%
    17:00 -1°C° 0 mm 2 mps 769 mmHg 84%
    18:00 -1°C° 0 mm 2 mps 770 mmHg 86%
    19:00 -2°C° 0 mm 2 mps 770 mmHg 86%
    20:00 -2°C° 0 mm 2 mps 770 mmHg 87%
    21:00 -3°C° 0 mm 2 mps 771 mmHg 87%
    22:00 -3°C° 0 mm 2 mps 771 mmHg 87%
    23:00 -3°C° 0 mm 2 mps 771 mmHg 86%
    Show more